Weather observations for the past three days for
Macdill Air Force Base, Fl.
Imperial (Metric)
Date Time (edt) Wind (mph) Vis. (mi.) Weather Sky Cond. Temperature (ºF) Relative Humidity Wind Chill (°F) Heat Index (°F) Pressure Precipitation (in)
Air Dwpt 6 hour altimeter (in) sea level (mb) 1 hr 3 hr 6 hr
Max. Min.
20 20:56 E 5 10.00 A Few Clouds FEW029 83.1 73.9 74% 90 30.09 1019.2
20 19:55 E 14 G 18 10.00 Partly Cloudy FEW038 FEW060 SCT200 84.6 74.1 93.2 80.6 71% 92 30.08 1018.9
20 18:55 E 6 10.00 Mostly Cloudy FEW034 SCT047 BKN065 BKN085 81.1 71.2 72% 85 30.06 1018.2
20 17:55 SW 12 10.00 Thunderstorm in Vicinity FEW120 SCT170 SCT190 92.7 77.2 61% 107 30.05 1017.8
20 16:55 SW 12 10.00 Thunderstorm in Vicinity FEW090 FEW110 SCT140 SCT170 SCT190 89.1 74.3 62% 98 30.05 1017.8
20 15:55 SW 12 10.00 Partly Cloudy FEW095 FEW120 SCT190 91 79 68% 108 30.06 1018.2
20 14:55 SW 12 10.00 Mostly Cloudy FEW100 SCT130 BKN180 BKN200 90 77.9 68% 104 30.07 1018.5
20 13:55 SW 8 10.00 Mostly Cloudy FEW090 SCT110 BKN130 BKN160 BKN190 91.6 75.2 92.5 81.1 59% 103 30.09 1019.2
20 12:55 SW 6 10.00 Mostly Cloudy FEW100 FEW120 SCT150 BKN190 91.6 76.1 61% 104 30.11 1019.9
20 11:55 S 6 10.00 Partly Cloudy FEW033 SCT140 SCT190 90.5 76.1 63% 103 30.11 1019.9
20 10:55 SE 3 10.00 Mostly Cloudy FEW100 FEW130 SCT150 BKN180 BKN200 89.2 75.4 64% 100 30.1 1019.5
20 09:55 E 6 10.00 Partly Cloudy FEW130 SCT200 86.9 76.3 71% 98 30.09 1019.2
20 08:55 Calm 10.00 A Few Clouds FEW180 84 75.9 77% 93 30.09 1019.2
20 07:55 SE 5 10.00 Thunderstorm in Vicinity FEW170 FEW200 81.1 76.1 85.3 78.8 85% 88 30.08 1018.9
20 06:55 E 6 10.00 Fair CLR 78.8 75.2 89% 82 30.06 1018.2
20 05:55 SE 7 10.00 Fair CLR 79.7 75.4 87% 84 30.06 1018.2
20 04:55 SE 7 10.00 Fair CLR 79.7 75.4 87% 84 30.04 1017.5
20 03:55 SE 5 10.00 Fair CLR 80.4 75 84% 86 30.05 1017.8
20 02:55 SE 6 10.00 Fair CLR 80.4 74.7 83% 86 30.06 1018.2
20 01:55 E 5 10.00 Fair CLR 79.9 72.7 87.4 79.9 79% 84 30.08 1018.9
20 00:55 E 7 10.00 Fair CLR 84.7 77 78% 95 30.1 1019.5
19 23:55 E 8 10.00 Fair CLR 85.3 75.6 73% 94 30.09 1019.2
19 22:55 E 5 10.00 Fair CLR 81.5 75.4 82% 88 30.08 1018.9
19 21:55 NE 5 10.00 Partly Cloudy SCT038 81.1 73.6 78% 86 30.06 1018.2
19 20:55 E 13 10.00 Mostly Cloudy SCT031 BKN044 BKN060 85.8 76.1 73% 96 30.07 1018.5
19 19:55 NW 6 10.00 Mostly Cloudy BKN039 BKN046 86.7 76.1 93.2 86.7 71% 97 30.04 1017.5
19 17:55 SW 10 G 16 10.00 Fair CLR 91.8 77.2 62% 106 30.01 1016.5
19 16:55 SW 10 10.00 Mostly Cloudy FEW120 FEW140 SCT170 SCT190 BKN220 92.1 76.1 60% 105 30.01 1016.5
19 15:55 S 13 10.00 A Few Clouds FEW130 FEW180 FEW200 92.7 78.1 63% 108 30.03 1017.2
19 14:55 SW 9 10.00 Mostly Cloudy FEW110 SCT140 SCT190 BKN210 92.3 73.2 54% 101 30.05 1017.8
19 13:55 W 6 10.00 Overcast FEW075 SCT100 BKN150 BKN170 BKN200 OVC220 91.9 72.9 92.5 80.8 54% 101 30.07 1018.5
19 12:55 SW 5 10.00 Mostly Cloudy FEW090 FEW110 SCT130 BKN160 BKN180 BKN200 90.7 73.8 58% 100 30.08 1018.9
19 11:55 SW 5 10.00 Mostly Cloudy FEW095 SCT110 SCT140 BKN170 BKN190 BKN210 90.1 73.2 58% 99 30.08 1018.9
19 10:55 S 8 10.00 Mostly Cloudy FEW110 SCT150 SCT180 BKN200 88.5 74.3 63% 98 30.08 1018.9
19 09:55 S 9 10.00 Partly Cloudy FEW120 FEW170 SCT200 86.2 74.7 69% 95 30.07 1018.5
19 08:55 SE 5 10.00 Partly Cloudy FEW150 FEW180 SCT210 83.7 74.8 75% 91 30.06 1018.2
19 07:55 SE 5 10.00 A Few Clouds FEW180 80.6 74.5 83.3 76.6 82% 86 30.06 1018.2
19 06:55 SE 6 10.00 Fair CLR 78.6 74.3 87% 82 30.04 1017.5
19 05:55 SE 6 10.00 Fair CLR 78.6 73.4 84% 82 30.02 1016.8
19 04:55 SE 7 10.00 Fair CLR 78.8 73.8 85% 82 30.01 1016.5
19 03:55 E 6 10.00 Fair CLR 77.7 72.9 85% 80 30.02 1016.8
19 02:55 SE 7 10.00 Fair CLR 79.5 72.3 79% 83 30.03 1017.2
19 01:55 SE 7 10.00 Fair CLR 79.3 71.4 84.7 78.3 77% 83 30.04 1017.5
19 00:55 S 6 10.00 Fair CLR 84.2 77.4 80% 95 30.05 1017.8
18 23:55 SE 5 10.00 Fair CLR 78.4 74.1 87% 81 30.06 1018.2
18 22:55 E 5 10.00 Fair CLR 79 72.9 82% 82 30.05 1017.8
18 21:55 E 7 10.00 Fair CLR 80.2 73.4 80% 85 30.04 1017.5
18 20:55 Calm 10.00 A Few Clouds FEW027 79.2 75.6 89% 83 30.04 1017.5
18 19:55 NE 6 10.00 Thunderstorm Light Drizzle FEW048 SCT060 BKN080 79.3 75.7 92.3 77.7 89% 84 30.03 1017.2 0.01 0.01
18 18:55 NW 6 10.00 Partly Cloudy SCT065 92.1 74.7 57% 103 30.01 1016.5
18 17:55 NW 7 10.00 Fair CLR 91.8 75.7 60% 104 30 1016.2
18 16:55 W 6 10.00 Fair CLR 90 74.7 61% 100 30.01 1016.5
18 15:55 W 6 10.00 Fair CLR 90.3 74.5 60% 100 30.02 1016.8
18 14:55 SW 7 10.00 Thunderstorm in Vicinity FEW180 91.4 75.4 60% 103 30.03 1017.2
18 13:55 S 6 10.00 Light Drizzle FEW180 FEW210 91.4 74.5 91.9 81.7 58% 102 30.04 1017.5
18 12:55 SW 5 10.00 Fair CLR 91 74.7 59% 101 30.06 1018.2
18 11:55 S 5 10.00 Fair CLR 88.2 77 70% 100 30.08 1018.9
18 10:55 SW 5 10.00 Fair CLR 87.8 77.9 73% 101 30.09 1019.2
18 09:55 S 8 10.00 Fair CLR 86 77.5 76% 98 30.08 1018.9
18 08:55 SE 7 10.00 Fair CLR 84.2 77.4 80% 95 30.07 1018.5
18 07:55 E 3 10.00 Fair CLR 81.5 76.5 83.8 75 85% 89 30.06 1018.2
18 06:55 Calm 10.00 Fair CLR 76.6 74.1 92% 77 30.03 1017.2
18 05:55 E 3 10.00 Fair CLR 77.5 74.3 90% 79 30 1016.2
18 04:55 E 5 10.00 Fair CLR 76.8 74.3 92% 78 30.01 1016.5
18 03:55 S 5 10.00 Fair CLR 79.3 74.3 85% 83 30 1016.2
18 02:55 SE 6 10.00 Fair CLR 79.2 74.5 86% 83 30.02 1016.8
18 01:55 E 3 10.00 Fair CLR 81.1 76.8 84.7 77.2 87% 88 30.04 1017.5
18 00:55 NE 5 10.00 Fair CLR 78.6 74.3 87% 82 30.05 1017.8
17 23:55 NE 6 10.00 Fair CLR 78.6 74.7 88% 82 30.06 1018.2
17 22:55 E 5 10.00 Fair CLR 79.9 74.8 85% 85 30.06 1018.2
17 21:55 E 7 10.00 Fair CLR 80.1 74.7 84% 85 30.06 1018.2
Date Time (edt) Wind (mph) Vis. (mi.) Weather Sky Cond. Air Dwpt Max. Min. Relative Humidity Wind Chill (°F) Heat Index (°F) altimeter (in) sea level (mb) 1 hr 3 hr 6 hr
6 hour
Temperature (ºF) Pressure Precipitation (in)